Simultaneous Nadir Overpasses (SNOs) Predictions

Prediction of SNOs between LANDSAT-8 and TERRA Satellite Orbit:

Table of predicted SNOs for the next 14.0 days since TLE Epoch: 10/16/2023
<
Index Date (LANDSAT-8) Time (LANDSAT-8) Lat,Lon (LANDSAT-8) SZA (LANDSAT-8 ) Date (TERRA) Time (TERRA) Lat,Lon (TERRA) SZA (TERRA ) Distance(km) Time Diff (sec)
1 10/22/2023 10:10:41 -81.59, -75.85 80.45 10/22/2023 10:11:51 -81.59, -75.85 80.41 0.08 70
2 10/22/2023 11:00:07 81.59, 92.01 99.59 10/22/2023 11:01:12 81.59, 91.98 99.63 0.50 65
3 10/22/2023 11:49:33 -81.58,-100.16 80.37 10/22/2023 11:50:34 -81.58,-100.20 80.34 0.66 61
4 10/22/2023 12:39:00 81.58, 67.29 99.62 10/22/2023 12:39:56 81.59, 67.23 99.65 1.10 56
5 10/22/2023 13:28:26 -81.58,-124.87 80.35 10/22/2023 13:29:18 -81.58,-124.95 80.32 1.22 52
6 10/22/2023 14:17:52 81.57, 42.98 99.70 10/22/2023 14:18:39 81.57, 42.88 99.71 1.68 47
7 10/22/2023 15:07:18 -81.56,-149.19 80.27 10/22/2023 15:08:01 -81.57,-149.30 80.26 1.81 43
8 10/22/2023 15:56:44 81.56, 18.67 99.78 10/22/2023 15:57:22 81.56, 18.53 99.78 2.28 38
9 10/22/2023 16:46:11 -81.56,-173.90 80.24 10/22/2023 16:46:45 -81.57,-174.04 80.24 2.38 34
10 10/22/2023 17:35:37 81.55, -6.05 99.81 10/22/2023 17:36:06 81.56, -6.22 99.80 2.87 29
11 10/22/2023 18:25:03 -81.55, 161.78 80.16 10/22/2023 18:25:28 -81.55, 161.61 80.17 2.96 25
12 10/22/2023 19:14:30 81.55, -30.77 99.83 10/22/2023 19:14:49 81.55, -30.57 99.87 3.32 19
13 10/22/2023 20:03:57 -81.56, 136.67 80.19 10/22/2023 20:04:12 -81.56, 136.86 80.16 3.22 15
14 10/22/2023 20:53:23 81.55, -55.48 99.86 10/22/2023 20:53:33 81.55, -55.32 99.88 2.73 10
15 10/22/2023 21:42:49 -81.55, 112.35 80.11 10/22/2023 21:42:55 -81.54, 112.51 80.09 2.63 6
16 10/22/2023 22:32:15 81.54, -79.80 99.94 10/22/2023 22:32:16 81.53, -79.67 99.95 2.13 1
17 10/22/2023 23:21:41 -81.53, 88.03 80.03 10/22/2023 23:21:38 -81.53, 88.15 80.02 2.05 3
18 10/23/2023 00:11:08 81.54,-104.52 99.96 10/23/2023 00:11:00 81.54,-104.42 99.97 1.54 8
19 10/23/2023 01:00:34 -81.53, 63.32 80.01 10/23/2023 01:00:22 -81.53, 63.40 80.00 1.47 12
20 10/23/2023 01:50:00 81.52,-128.83 100.04 10/23/2023 01:49:43 81.52,-128.78 100.04 0.94 17
21 10/23/2023 02:39:26 -81.52, 39.00 79.93 10/23/2023 02:39:05 -81.51, 39.05 79.93 0.88 21
22 10/23/2023 03:28:52 81.51,-153.15 100.12 10/23/2023 03:28:26 81.50,-153.13 100.11 0.36 26
23 10/23/2023 04:18:19 -81.51, 14.28 79.90 10/23/2023 04:17:49 -81.52, 14.30 79.92 0.34 30
24 10/23/2023 05:07:45 81.51,-177.87 100.14 10/23/2023 05:07:10 81.51,-177.88 100.12 0.28 35
25 10/23/2023 05:57:11 -81.50, -10.04 79.82 10/23/2023 05:56:32 -81.50, -10.06 79.85 0.29 39
26 10/23/2023 06:46:37 81.49, 157.81 100.22 10/23/2023 06:45:53 81.49, 157.76 100.19 0.86 44
27 10/23/2023 07:36:03 -81.48, -34.36 79.74 10/23/2023 07:35:15 -81.48, -34.42 79.78
